Cairo, IL

10:43 PM CST on November 13, 2019 (GMT -0600)
Cairo Regional

Weather History for KCIR - October, 2019

Change the Weather History Date:

Sunday, October 20, 2019

  Actual Average Record
Temperature  
Mean Temperature 59 °F -  
Max Temperature 72 °F 67 °F 86 °F (1963)
Min Temperature 46 °F 46 °F 34 °F (1989)
Degree Days  
Heating Degree Days 6    
Growing Degree Days 9 (Base 50)    
Moisture  
Dew Point 52 °F    
Average Humidity 82    
Maximum Humidity 100    
Minimum Humidity 48    
Precipitation  
Precipitation 0.00 in - - ()
Sea Level Pressure  
Sea Level Pressure 29.86 in    
Wind  
Wind Speed 1 mph ()    
Max Wind Speed 10 mph    
Max Gust Speed -    
Visibility 9.8 miles    
Events      
Averages and records for this station are not official NWS values.
T = Trace of Precipitation, MM = Missing Value Source: Averaged Metar Reports

Daily Weather History Graph

Daily Weather History Graph

Search for Another Location

Airport or City:

Astronomy

Oct. 20, 2019 Rise Set
Actual Time 7:09 AM CDT 6:13 PM CDT
Civil Twilight 6:42 AM CDT 6:40 PM CDT
Nautical Twilight 6:12 AM CDT 7:10 PM CDT
Astronomical Twilight 5:42 AM CDT 7:40 PM CDT
Moon 11:28 PM CDT (10/20) 1:31 PM CDT (10/20)
Length of Visible Light 11h 57m
Length of Day
11h 04m
Waning Gibbous, 59% of the Moon is Illuminated
Oct 20
Waning Gibbous
Oct 21
Last Quarter
Oct 27
New
Nov 4
First Quarter
Nov 12
Full

Hourly Weather History & Observations

Time (CDT) Temp. Dew Point Humidity Pressure Visibility Wind Dir Wind Speed Gust Speed Precip Events Conditions
12:15 AM 50.5 °F 49.6 °F 97% 29.80 in 10.0 mi Calm Calm - N/A   Clear
12:35 AM 48.4 °F 48.2 °F 99% 29.81 in 7.0 mi Calm Calm - N/A   Clear
12:55 AM 48.2 °F 47.5 °F 97% 29.81 in 10.0 mi Calm Calm - N/A   Clear
1:15 AM 47.5 °F 47.1 °F 99% 29.82 in 10.0 mi Calm Calm - N/A   Scattered Clouds
1:35 AM 49.6 °F 49.5 °F 99% 29.82 in 10.0 mi Calm Calm - N/A   Overcast
1:55 AM 49.1 °F 48.7 °F 99% 29.82 in 10.0 mi Calm Calm - N/A   Scattered Clouds
2:15 AM 47.3 °F 47.1 °F 99% 29.82 in 10.0 mi Calm Calm - N/A   Clear
2:35 AM 48.0 °F 47.8 °F 99% 29.83 in 10.0 mi Calm Calm - N/A   Clear
2:55 AM 48.4 °F 48.4 °F 100% 29.83 in 10.0 mi Calm Calm - N/A   Clear
3:15 AM 47.1 °F 46.9 °F 99% 29.83 in 10.0 mi Calm Calm - N/A   Clear
3:35 AM 46.4 °F 46.2 °F 99% 29.83 in 10.0 mi Calm Calm - N/A   Mostly Cloudy
3:55 AM 47.3 °F 47.1 °F 99% 29.83 in 10.0 mi Calm Calm - N/A   Mostly Cloudy
4:15 AM 48.0 °F 48.0 °F 100% 29.84 in 10.0 mi Calm Calm - N/A   Mostly Cloudy
4:35 AM 47.5 °F 47.5 °F 100% 29.85 in 10.0 mi Calm Calm - N/A   Overcast
4:55 AM 49.1 °F 49.1 °F 100% 29.85 in 10.0 mi Calm Calm - N/A   Overcast
5:15 AM 50.0 °F 50.0 °F 100% 29.85 in 10.0 mi Calm Calm - N/A   Overcast
5:35 AM 49.6 °F 49.5 °F 99% 29.86 in 10.0 mi Calm Calm - N/A   Overcast
5:55 AM 50.2 °F 50.0 °F 99% 29.86 in 10.0 mi Calm Calm - N/A   Overcast
6:15 AM 50.2 °F 50.0 °F 99% 29.87 in 10.0 mi Calm Calm - N/A   Overcast
6:35 AM 50.5 °F 50.0 °F 98% 29.87 in 10.0 mi Calm Calm - N/A   Overcast
6:55 AM 50.9 °F 49.8 °F 96% 29.87 in 10.0 mi Calm Calm - N/A   Overcast
7:15 AM 50.9 °F 50.0 °F 97% 29.88 in 10.0 mi Calm Calm - N/A   Overcast
7:35 AM 51.6 °F 50.5 °F 96% 29.88 in 10.0 mi Calm Calm - N/A   Overcast
7:55 AM 52.2 °F 51.6 °F 98% 29.90 in 10.0 mi Calm Calm - N/A   Overcast
8:15 AM 53.1 °F 52.0 °F 96% 29.90 in 10.0 mi Calm Calm - N/A   Overcast
8:35 AM 54.5 °F 52.7 °F 94% 29.91 in 10.0 mi Calm Calm - N/A   Overcast
8:55 AM 55.6 °F 52.9 °F 91% 29.91 in 10.0 mi Calm Calm - N/A   Mostly Cloudy
9:15 AM 55.4 °F 53.6 °F 94% 29.92 in 7.0 mi North 4.6 mph - N/A   Overcast
9:35 AM 55.8 °F 53.6 °F 92% 29.92 in 10.0 mi Calm Calm - N/A   Overcast
9:55 AM 56.3 °F 53.8 °F 91% 29.93 in 10.0 mi NNE 5.8 mph - N/A   Overcast
10:15 AM 56.3 °F 53.6 °F 91% 29.94 in 7.0 mi Calm Calm - N/A   Overcast
10:35 AM 57.4 °F 53.8 °F 88% 29.94 in 10.0 mi Calm Calm - N/A   Overcast
10:55 AM 59.4 °F 54.1 °F 83% 29.94 in 10.0 mi Calm Calm - N/A   Overcast
11:15 AM 60.6 °F 54.1 °F 79% 29.93 in 10.0 mi Calm Calm - N/A   Overcast
11:35 AM 62.2 °F 54.5 °F 76% 29.93 in 10.0 mi Calm Calm - N/A   Overcast
11:55 AM 64.9 °F 55.4 °F 71% 29.92 in 10.0 mi Calm Calm - N/A   Overcast
12:15 PM 65.7 °F 54.0 °F 66% 29.92 in 10.0 mi Calm Calm - N/A   Overcast
12:35 PM 65.1 °F 54.1 °F 68% 29.91 in 10.0 mi Calm Calm - N/A   Overcast
12:55 PM 66.2 °F 53.2 °F 63% 29.90 in 10.0 mi Calm Calm - N/A   Overcast
1:15 PM 66.9 °F 53.6 °F 62% 29.89 in 10.0 mi Calm Calm - N/A   Mostly Cloudy
1:35 PM 69.3 °F 54.0 °F 58% 29.88 in 10.0 mi ESE 5.8 mph - N/A   Scattered Clouds
1:55 PM 69.6 °F 53.1 °F 56% 29.87 in 10.0 mi East 4.6 mph - N/A   Clear
2:15 PM 70.3 °F 53.1 °F 54% 29.87 in 10.0 mi ESE 5.8 mph - N/A   Clear
2:35 PM 71.2 °F 50.7 °F 48% 29.86 in 10.0 mi Calm Calm - N/A   Clear
2:55 PM 69.8 °F 53.4 °F 56% 29.86 in 10.0 mi South 4.6 mph - N/A   Mostly Cloudy
3:15 PM 71.1 °F 51.4 °F 50% 29.86 in 10.0 mi ESE 4.6 mph - N/A   Mostly Cloudy
3:35 PM 70.9 °F 52.0 °F 51% 29.86 in 10.0 mi SE 6.9 mph - N/A   Mostly Cloudy
3:55 PM 71.2 °F 52.5 °F 52% 29.86 in 10.0 mi SE 5.8 mph - N/A   Mostly Cloudy
4:15 PM 72.7 °F 53.1 °F 50% 29.85 in 10.0 mi SSE 4.6 mph - N/A   Mostly Cloudy
4:35 PM 72.5 °F 52.7 °F 50% 29.85 in 10.0 mi SE 6.9 mph - N/A   Scattered Clouds
4:55 PM 71.6 °F 51.6 °F 49% 29.85 in 10.0 mi ESE 3.5 mph - N/A   Scattered Clouds
5:15 PM 71.4 °F 52.7 °F 52% 29.85 in 10.0 mi Calm Calm - N/A   Mostly Cloudy
5:35 PM 71.2 °F 52.7 °F 52% 29.84 in 10.0 mi Calm Calm - N/A   Overcast
5:55 PM 68.9 °F 54.5 °F 60% 29.84 in 10.0 mi Calm Calm - N/A   Scattered Clouds
6:15 PM 66.6 °F 54.9 °F 66% 29.83 in 10.0 mi East 3.5 mph - N/A   Mostly Cloudy
6:35 PM 64.4 °F 55.6 °F 73% 29.83 in 10.0 mi Calm Calm - N/A   Overcast
6:55 PM 63.5 °F 56.1 °F 77% 29.84 in 10.0 mi Calm Calm - N/A   Overcast
7:15 PM 62.2 °F 56.5 °F 81% 29.84 in 7.0 mi Calm Calm - N/A   Overcast
7:35 PM 62.8 °F 56.7 °F 80% 29.84 in 10.0 mi Calm Calm - N/A   Overcast
7:55 PM 62.6 °F 56.7 °F 81% 29.84 in 10.0 mi Calm Calm - N/A   Mostly Cloudy
8:15 PM 61.5 °F 56.1 °F 82% 29.84 in 10.0 mi East 3.5 mph - N/A   Mostly Cloudy
8:35 PM 60.1 °F 54.7 °F 82% 29.84 in 10.0 mi Calm Calm - N/A   Overcast
8:55 PM 59.5 °F 54.5 °F 83% 29.84 in 7.0 mi Calm Calm - N/A   Mostly Cloudy
9:15 PM 59.7 °F 54.5 °F 83% 29.84 in 10.0 mi Calm Calm - N/A   Scattered Clouds
9:35 PM 59.5 °F 54.9 °F 84% 29.85 in 10.0 mi Calm Calm - N/A   Mostly Cloudy
9:55 PM 60.1 °F 54.7 °F 82% 29.85 in 10.0 mi East 4.6 mph - N/A   Scattered Clouds
10:15 PM 59.4 °F 54.9 °F 85% 29.85 in 10.0 mi Calm Calm - N/A   Scattered Clouds
10:35 PM 60.6 °F 55.9 °F 85% 29.84 in 10.0 mi SE 5.8 mph - N/A   Scattered Clouds
10:55 PM 61.2 °F 56.7 °F 85% 29.82 in 10.0 mi ESE 8.1 mph - N/A   Clear
11:15 PM 62.1 °F 57.2 °F 84% 29.81 in 10.0 mi SE 5.8 mph - N/A   Clear
11:35 PM 62.6 °F 57.6 °F 84% 29.78 in 10.0 mi SE 8.1 mph - N/A   Clear
11:55 PM 63.5 °F 58.1 °F 83% 29.76 in 10.0 mi SE 10.4 mph - N/A   Clear